Hourly Weather Belize

Today, 14 July, Tuesday

Time Temperature Precipitation Wind Pressure Humidity
00:00 +26°C° 0 mm 6 mps 760 mmHg 96%
01:00 +26°C° 0 mm 5 mps 760 mmHg 95%
02:00 +26°C° 0 mm 5 mps 759 mmHg 95%
03:00 +26°C° 0 mm 5 mps 759 mmHg 95%
04:00 +26°C° 0.1 mm 5 mps 759 mmHg 95%
05:00 +26°C° 0.1 mm 5 mps 759 mmHg 95%
06:00 +26°C° 0.1 mm 5 mps 760 mmHg 96%
07:00 +28°C° 0 mm 5 mps 760 mmHg 85%
08:00 +30°C° 0 mm 5 mps 760 mmHg 74%
09:00 +33°C° 0 mm 5 mps 760 mmHg 63%
10:00 +34°C° 0.4 mm 5 mps 760 mmHg 63%
11:00 +34°C° 0.4 mm 6 mps 760 mmHg 63%
12:00 +34°C° 0.4 mm 6 mps 760 mmHg 63%
13:00 +33°C° 0.6 mm 6 mps 760 mmHg 72%
14:00 +32°C° 0.6 mm 6 mps 759 mmHg 80%
15:00 +30°C° 0.6 mm 6 mps 759 mmHg 88%
16:00 +30°C° 0.5 mm 6 mps 759 mmHg 90%
17:00 +29°C° 0.5 mm 6 mps 759 mmHg 92%
18:00 +28°C° 0.5 mm 6 mps 759 mmHg 93%
19:00 +28°C° 0 mm 6 mps 760 mmHg 94%
20:00 +27°C° 0 mm 7 mps 760 mmHg 95%
21:00 +27°C° 0 mm 7 mps 760 mmHg 95%
22:00 +27°C° 0.5 mm 7 mps 760 mmHg 96%
23:00 +27°C° 0.5 mm 7 mps 760 mmHg 97%

Tomorrow, 15 July, Wednesday

Time Temperature Precipitation Wind Pressure Humidity
00:00 +27°C° 0.5 mm 7 mps 760 mmHg 97%
01:00 +27°C° 0.1 mm 7 mps 760 mmHg 97%
02:00 +27°C° 0.1 mm 7 mps 759 mmHg 97%
03:00 +27°C° 0.1 mm 7 mps 758 mmHg 98%
04:00 +27°C° 0.2 mm 7 mps 759 mmHg 98%
05:00 +26°C° 0.2 mm 6 mps 759 mmHg 97%
06:00 +26°C° 0.2 mm 6 mps 759 mmHg 97%
07:00 +29°C° 0.1 mm 6 mps 759 mmHg 87%
08:00 +32°C° 0.1 mm 6 mps 760 mmHg 76%
09:00 +34°C° 0.1 mm 6 mps 760 mmHg 65%
10:00 +34°C° 0 mm 6 mps 760 mmHg 61%
11:00 +35°C° 0 mm 6 mps 760 mmHg 58%
12:00 +36°C° 0 mm 6 mps 760 mmHg 54%
13:00 +35°C° 0.2 mm 6 mps 760 mmHg 57%
14:00 +35°C° 0.2 mm 5 mps 759 mmHg 60%
15:00 +34°C° 0.2 mm 5 mps 759 mmHg 63%
16:00 +33°C° 0.1 mm 5 mps 759 mmHg 69%
17:00 +32°C° 0.1 mm 6 mps 759 mmHg 75%
18:00 +30°C° 0.1 mm 6 mps 759 mmHg 82%
19:00 +29°C° 0 mm 6 mps 759 mmHg 86%
20:00 +28°C° 0 mm 6 mps 760 mmHg 89%
21:00 +27°C° 0 mm 6 mps 760 mmHg 93%
22:00 +27°C° 0 mm 6 mps 760 mmHg 95%
23:00 +27°C° 0 mm 6 mps 760 mmHg 96%

Day after tomorrow, 16 July, Thursday

Time Temperature Precipitation Wind Pressure Humidity
00:00 +27°C° 0 mm 6 mps 760 mmHg 97%
01:00 +27°C° 0 mm 5 mps 760 mmHg 97%
02:00 +26°C° 0 mm 5 mps 759 mmHg 97%
03:00 +26°C° 0 mm 5 mps 759 mmHg 97%
04:00 +26°C° 0.1 mm 5 mps 759 mmHg 97%
05:00 +26°C° 0.1 mm 4 mps 759 mmHg 97%
06:00 +26°C° 0.1 mm 4 mps 759 mmHg 96%
07:00 +28°C° 0.2 mm 4 mps 760 mmHg 88%
08:00 +30°C° 0.2 mm 4 mps 760 mmHg 79%
09:00 +33°C° 0.2 mm 3 mps 761 mmHg 71%
10:00 +34°C° 0.2 mm 3 mps 761 mmHg 67%
11:00 +34°C° 0.2 mm 3 mps 760 mmHg 64%
12:00 +35°C° 0.2 mm 3 mps 760 mmHg 61%
13:00 +34°C° 0.4 mm 4 mps 760 mmHg 67%
14:00 +34°C° 0.4 mm 4 mps 759 mmHg 74%
15:00 +33°C° 0.4 mm 5 mps 759 mmHg 81%
16:00 +32°C° 0 mm 5 mps 759 mmHg 80%
17:00 +32°C° 0 mm 5 mps 759 mmHg 80%
18:00 +30°C° 0 mm 5 mps 759 mmHg 79%
19:00 +29°C° 0 mm 5 mps 759 mmHg 84%
20:00 +28°C° 0 mm 5 mps 760 mmHg 90%
21:00 +27°C° 0 mm 5 mps 760 mmHg 95%
22:00 +27°C° 0.2 mm 5 mps 760 mmHg 96%
23:00 +27°C° 0.2 mm 4 mps 760 mmHg 97%

17 July, Friday

Time Temperature Precipitation Wind Pressure Humidity
00:00 +26°C° 0.2 mm 4 mps 760 mmHg 98%
01:00 +26°C° 0.8 mm 3 mps 759 mmHg 98%
02:00 +26°C° 0.8 mm 3 mps 759 mmHg 99%
03:00 +26°C° 0.8 mm 3 mps 758 mmHg 99%
04:00 +26°C° 0.8 mm 2 mps 759 mmHg 99%
05:00 +26°C° 0.8 mm 2 mps 759 mmHg 99%
06:00 +26°C° 0.8 mm 2 mps 759 mmHg 99%
07:00 +27°C° 1.1 mm 1 mps 759 mmHg 96%
08:00 +28°C° 1.1 mm 1 mps 760 mmHg 93%
09:00 +29°C° 1.1 mm 1 mps 760 mmHg 89%
10:00 +31°C° 0.4 mm 2 mps 760 mmHg 80%
11:00 +32°C° 0.4 mm 2 mps 760 mmHg 71%
12:00 +34°C° 0.4 mm 3 mps 759 mmHg 61%
13:00 +34°C° 0.1 mm 3 mps 759 mmHg 59%
14:00 +35°C° 0.1 mm 3 mps 759 mmHg 58%
15:00 +35°C° 0.1 mm 4 mps 758 mmHg 56%
16:00 +34°C° 0 mm 3 mps 758 mmHg 63%
17:00 +31°C° 0 mm 3 mps 758 mmHg 70%
18:00 +30°C° 0 mm 3 mps 758 mmHg 76%
19:00 +29°C° 0 mm 3 mps 758 mmHg 82%
20:00 +27°C° 0 mm 3 mps 759 mmHg 87%
21:00 +26°C° 0 mm 3 mps 759 mmHg 93%
22:00 +26°C° 0.2 mm 3 mps 759 mmHg 94%
23:00 +26°C° 0.2 mm 2 mps 759 mmHg 95%

18 July, Saturday

Time Temperature Precipitation Wind Pressure Humidity
00:00 +25°C° 0.2 mm 2 mps 758 mmHg 96%
01:00 +25°C° 0 mm 2 mps 758 mmHg 97%
02:00 +25°C° 0 mm 1 mps 758 mmHg 98%
03:00 +25°C° 0 mm 1 mps 758 mmHg 98%
04:00 +25°C° 0.1 mm 1 mps 758 mmHg 98%
05:00 +25°C° 0.1 mm 2 mps 758 mmHg 97%
06:00 +25°C° 0.1 mm 2 mps 758 mmHg 97%
07:00 +28°C° 0.2 mm 1 mps 758 mmHg 86%
08:00 +30°C° 0.2 mm 1 mps 759 mmHg 76%
09:00 +33°C° 0.2 mm 1 mps 759 mmHg 65%
10:00 +33°C° 0.1 mm 1 mps 759 mmHg 61%
11:00 +35°C° 0.1 mm 2 mps 759 mmHg 57%
12:00 +36°C° 0.1 mm 2 mps 759 mmHg 53%
13:00 +35°C° 0.1 mm 3 mps 758 mmHg 53%
14:00 +35°C° 0.1 mm 3 mps 758 mmHg 54%
15:00 +35°C° 0.1 mm 3 mps 758 mmHg 54%
16:00 +34°C° 0 mm 3 mps 758 mmHg 60%
17:00 +31°C° 0 mm 3 mps 758 mmHg 67%
18:00 +30°C° 0 mm 3 mps 758 mmHg 73%
19:00 +28°C° 0 mm 4 mps 758 mmHg 78%
20:00 +27°C° 0 mm 4 mps 759 mmHg 83%
21:00 +26°C° 0 mm 4 mps 759 mmHg 88%
22:00 +26°C° 0 mm 4 mps 759 mmHg 91%
23:00 +25°C° 0 mm 4 mps 759 mmHg 93%

19 July, Sunday

Time Temperature Precipitation Wind Pressure Humidity
00:00 +25°C° 0 mm 4 mps 758 mmHg 96%
01:00 +25°C° 0.1 mm 3 mps 758 mmHg 97%
02:00 +25°C° 0.1 mm 3 mps 758 mmHg 97%
03:00 +25°C° 0.1 mm 3 mps 757 mmHg 98%
04:00 +25°C° 0.2 mm 3 mps 758 mmHg 97%
05:00 +25°C° 0.2 mm 3 mps 758 mmHg 97%
06:00 +25°C° 0.2 mm 3 mps 758 mmHg 96%
07:00 +27°C° 0 mm 3 mps 758 mmHg 85%
08:00 +30°C° 0 mm 3 mps 759 mmHg 75%
09:00 +33°C° 0 mm 3 mps 759 mmHg 64%
10:00 +34°C° 0.1 mm 3 mps 759 mmHg 60%
11:00 +35°C° 0.1 mm 4 mps 759 mmHg 55%
12:00 +36°C° 0.1 mm 4 mps 759 mmHg 51%
13:00 +35°C° 0.1 mm 4 mps 758 mmHg 53%
14:00 +35°C° 0.1 mm 4 mps 758 mmHg 55%
15:00 +35°C° 0.1 mm 4 mps 757 mmHg 57%
16:00 +33°C° 0 mm 4 mps 757 mmHg 63%
17:00 +32°C° 0 mm 4 mps 758 mmHg 70%
18:00 +29°C° 0 mm 4 mps 758 mmHg 76%
19:00 +28°C° 0 mm 4 mps 758 mmHg 83%
20:00 +27°C° 0 mm 4 mps 759 mmHg 90%
21:00 +25°C° 0 mm 4 mps 759 mmHg 97%
22:00 +25°C° 0 mm 4 mps 759 mmHg 97%
23:00 +25°C° 0 mm 4 mps 758 mmHg 98%
Show more